Location: M?digepalle
(16.1753°N, 80.3496°E)
Time: 09:12:06
(UTC+00:00)

ASTRO F (AKARI) - Pass Details

Date: 29 October 2020
Orbit: 397 x 523 km, 98.2° (Epoch: 27 November)

Event Time Altitude Azimuth Distance (km) Brightness Sun altitude
Rises 23:47:27 0° 9° (N) 2,415 8.1 -12.0°
Reaches altitude 10° 23:49:30 10° 7° (N) 1,524 7.0 -11.5°
Maximum altitude 23:52:44 72° 283° (WNW) 441 4.1 -10.8°
Drops below altitude 10° 23:55:51 10° 198° (SSW) 1,468 6.9 -10.0°
Sets 23:57:48 0° 196° (SSW) 2,313 8.0 -9.6°
